[[{"header":{"parameterUnit":"m.s-1","parameterCategory":2,"la1":30.2991,"la2":30.254,"lo1":-89.0895,"lo2":-89.0444,"dy":0.0017,"dx":0.0017,"nx":28,"ny":28,"refTime":"2024-03-19T21:00:00:Z","depth":"0","parameterNumber":2,"parameterNumberName":"U-component_of_CURRENTS"},"data":[0,0,0,0,0,0,0,0,0,0,0,0,0,0,0,0,0,0,0,0,0,0,0,0,0,0,0,0,0,0,0,0,0,0,0,0,0,0,0,0,0,0,0,0,0,0,0,0,0,0,0,0,0,0,0,0,0,0,-0.3253,-0.3251,0,-0.3162,-0.3161,-0.3161,-0.315,-0.315,-0.3151,-0.3151,-0.3084,-0.3081,-0.3079,0,0,0,0,0,0,0,0,0,0,0,0,0,-0.3215,-0.3217,-0.3253,-0.3251,-0.325,-0.3162,-0.3161,-0.316,-0.3149,-0.315,-0.3151,-0.3152,-0.3084,-0.3081,-0.3079,0,0,0,0,0,0,0,0,0,0,0,0,0,-0.3192,-0.3218,-0.3253,-0.3232,-0.3229,-0.3162,-0.3161,-0.316,-0.3149,-0.315,-0.3151,-0.3152,-0.3085,-0.3082,-0.3078,-0.3038,0,0,-0.3067,-0.3066,0,0,0,0,0,0,0,0,-0.3194,-0.3194,-0.3236,-0.3233,-0.3229,-0.3165,-0.3123,-0.3119,-0.3149,-0.3183,-0.3151,-0.3152,-0.311,-0.3105,-0.309,-0.3035,-0.3032,-0.3067,-0.3065,-0.3063,-0.3062,0,0,0,0,0,0,0,-0.3195,-0.3196,-0.322,-0.3235,-0.323,-0.3157,-0.3157,-0.3121,-0.3145,-0.318,-0.3178,-0.3163,-0.3109,-0.3093,-0.3088,-0.3031,-0.3067,-0.3064,-0.3062,-0.306,-0.2986,-0.2986,0,0,0,0,0,0,-0.3211,-0.3199,-0.3223,-0.3217,-0.321,-0.3158,-0.3158,-0.3188,-0.3145,-0.3138,-0.3162,-0.3162,-0.3099,-0.3092,-0.3086,-0.3095,-0.3063,-0.306,-0.3058,-0.2986,-0.2986,-0.2986,0,0,0,0,0,0,-0.3211,-0.3215,-0.3226,-0.32,-0.3196,-0.3159,-0.3191,-0.3185,-0.3173,-0.3131,-0.3126,-0.3156,-0.3099,-0.3091,-0.3073,-0.3091,-0.3058,-0.3055,-0.2986,-0.2986,-0.2986,-0.3076,0,0,0,0,0,0,-0.3211,-0.3217,-0.3237,-0.3203,-0.3198,-0.3212,-0.319,-0.3183,-0.316,-0.316,-0.3123,-0.3118,-0.3099,-0.3079,-0.307,-0.3085,-0.3052,-0.2985,-0.2986,-0.2986,-0.3073,-0.308,-0.3085,0,0,0,0,0,-0.3211,-0.3229,-0.324,-0.3241,-0.3231,-0.3212,-0.3204,-0.3179,-0.3159,-0.3168,-0.3141,-0.3119,-0.3074,-0.3076,-0.3066,-0.308,-0.2985,-0.2986,-0.2986,-0.3071,-0.3078,-0.3085,0,0,0,0,0,0,-0.3209,-0.3228,-0.3239,-0.3261,-0.3252,-0.321,-0.3193,-0.3178,-0.3159,-0.3153,-0.3119,-0.3112,-0.3094,-0.3072,-0.3075,-0.3057,-0.3026,-0.3024,-0.3094,-0.3101,-0.3107,-0.315,-0.305,0,0,0,0,0,-0.3223,-0.3252,-0.325,-0.3265,-0.3261,-0.3229,-0.3211,-0.3202,-0.3177,-0.3169,-0.3143,-0.3112,-0.3083,-0.3083,-0.3046,-0.3043,-0.3001,-0.3044,-0.305,-0.3056,-0.3082,-0.3046,-0.3052,-0.2987,-0.2987,-0.2987,0,0,-0.3218,-0.3233,-0.3246,-0.3266,-0.3248,-0.3264,-0.3222,-0.3204,-0.3223,-0.3162,-0.3168,-0.3118,-0.3079,-0.3075,-0.3067,-0.3067,-0.304,-0.3056,-0.3061,-0.3086,-0.3048,-0.3054,-0.306,-0.2987,-0.2987,-0.2987,0,0,-0.3217,-0.3246,-0.3269,-0.3282,-0.3275,-0.3267,-0.3269,-0.3243,-0.3242,-0.3238,-0.3193,-0.3171,-0.3127,-0.312,-0.3106,-0.3122,-0.3055,-0.3094,-0.3184,-0.3149,-0.3155,-0.316,-0.3069,-0.3066,-0.312,-0.312,-0.3121,0,-0.3202,-0.3263,-0.3264,-0.3294,-0.3308,-0.328,-0.331,-0.3304,-0.3279,-0.3286,-0.3257,-0.3199,-0.3159,-0.3172,-0.3179,-0.3141,-0.3085,-0.3164,-0.316,-0.3164,-0.3167,-0.3074,-0.3068,-0.3125,-0.3124,-0.3124,-0.3123,0,-0.3229,-0.3285,-0.329,-0.3348,-0.336,-0.3375,-0.3385,-0.3393,-0.3376,-0.3373,-0.3364,-0.331,-0.3285,-0.3263,-0.3228,-0.3235,-0.317,-0.3154,-0.3149,-0.318,-0.3078,-0.3071,-0.3131,-0.3129,-0.3128,-0.3127,0,0,-0.3172,-0.3292,-0.3295,-0.3354,-0.34,-0.3411,-0.3454,-0.3488,-0.3512,-0.3492,-0.3513,-0.3472,-0.343,-0.3411,-0.3356,-0.3344,-0.3293,-0.3271,-0.3267,-0.3194,-0.3166,-0.3007,-0.2982,-0.3272,-0.3273,-0.3273,-0.3069,0,-0.319,-0.3289,-0.3337,-0.3424,-0.3479,-0.3505,-0.3549,-0.3578,-0.3582,-0.3592,-0.356,-0.3537,-0.3491,-0.3459,-0.3446,-0.3312,-0.3285,-0.3347,-0.3137,-0.313,-0.2997,-0.2974,-0.2842,-0.2641,-0.3061,-0.306,-0.3059,0,-0.3203,-0.3279,-0.3378,-0.3508,-0.3527,-0.3565,-0.3638,-0.3671,-0.3696,-0.3693,-0.3693,-0.3644,-0.3605,-0.3555,-0.3408,-0.3441,-0.3322,-0.3235,-0.3225,-0.3051,-0.2959,-0.2685,-0.2611,-0.2599,-0.3048,-0.3048,-0.3049,0,-0.318,-0.3309,-0.3398,-0.3441,-0.3564,-0.3599,-0.3642,-0.3693,-0.3681,-0.3738,-0.3687,-0.3704,-0.3593,-0.3534,-0.3325,-0.3366,-0.3128,-0.3158,-0.2913,-0.2898,-0.2734,-0.2704,-0.2642,-0.3079,-0.308,-0.308,-0.3081,0,-0.3198,-0.3263,-0.3394,-0.3443,-0.3503,-0.3601,-0.3626,-0.3684,-0.3695,-0.3626,-0.3703,-0.3594,-0.3573,-0.3419,-0.3327,-0.3047,-0.3115,-0.2916,-0.2843,-0.2752,-0.2728,-0.2668,-0.2717,-0.3073,-0.3074,-0.3076,-0.3077,0,-0.3145,-0.3249,-0.3333,-0.3465,-0.3492,-0.3517,-0.3541,-0.3529,-0.3585,-0.3482,-0.3471,-0.344,-0.3261,-0.3199,-0.3034,-0.2944,-0.2712,-0.2671,-0.2534,-0.2451,-0.2265,-0.2323,-0.217,-0.2117,-0.2412,-0.2407,-0.2403,0,-0.3136,-0.3187,-0.329,-0.3272,-0.3313,-0.3352,-0.3332,-0.3436,-0.3365,-0.332,-0.32,-0.3091,-0.2912,-0.2647,-0.2552,-0.239,-0.2437,-0.2162,-0.2254,-0.2224,-0.2237,-0.2295,-0.227,-0.2048,-0.2041,-0.2035,-0.2031,0,-0.307,-0.3091,-0.3117,-0.3097,-0.3079,-0.3065,-0.3037,-0.297,-0.301,-0.2922,-0.2737,-0.2639,-0.2442,-0.2222,-0.2069,-0.1983,-0.2129,-0.2039,-0.206,-0.1989,-0.1998,-0.192,-0.219,-0.1981,-0.1986,-0.199,-0.1993,-0.1995,-0.2941,-0.2914,-0.2908,-0.2857,-0.2823,-0.2719,-0.2621,-0.2566,-0.2438,-0.2261,-0.2274,-0.2078,-0.1983,-0.1768,-0.1681,-0.1567,-0.1711,-0.1547,-0.1623,-0.1687,-0.1642,-0.1774,-0.1462,-0.1464,-0.1466,-0.1467,-0.1468,0,-0.2764,-0.272,-0.2659,-0.2577,-0.244,-0.2513,-0.2354,-0.221,-0.1979,-0.1895,-0.1733,-0.1556,-0.1367,-0.1362,-0.1263,-0.1192,-0.1234,-0.1191,-0.1295,-0.1295,-0.1425,-0.1417,-0.1018,-0.1019,-0.1019,-0.1019,-0.1019,-0.1019,-0.2651,-0.2529,-0.2497,-0.2214,-0.2142,-0.1911,-0.1783,-0.1622,-0.1496,-0.1245,-0.1151,-0.1127,-0.1145,-0.1192,-0.1107,-0.1057,-0.1107,-0.1024,-0.1115,-0.1276,-0.1318,-0.1359,-0.1364,-0.096,-0.096,-0.0926,-0.0926,-0.0926]},{"header":{"parameterUnit":"m.s-1","parameterCategory":2,"la1":30.2991,"la2":30.254,"lo1":-89.0895,"lo2":-89.0444,"dy":0.0017,"dx":0.0017,"nx":28,"ny":28,"refTime":"2024-03-19T21:00:00:Z","depth":"0","parameterNumber":3,"parameterNumberName":"V-component_of_CURRENTS"},"data":[0,0,0,0,0,0,0,0,0,0,0,0,0,0,0,0,0,0,0,0,0,0,0,0,0,0,0,0,0,0,0,0,0,0,0,0,0,0,0,0,0,0,0,0,0,0,0,0,0,0,0,0,0,0,0,0,0,0,0.0149,0.015,0,0.0228,0.0229,0.023,0.0259,0.0259,0.0259,0.0259,0.0328,0.033,0.0332,0,0,0,0,0,0,0,0,0,0,0,0,0,-0.0005,-0.0002,0.0149,0.015,0.0151,0.0228,0.0229,0.023,0.0259,0.0259,0.0259,0.0259,0.0327,0.033,0.0332,0,0,0,0,0,0,0,0,0,0,0,0,0,0.0065,-0.0001,0.0149,0.0176,0.018,0.0228,0.0229,0.023,0.0259,0.0259,0.0259,0.0259,0.0327,0.0329,0.0332,0.0353,0,0,0.0341,0.0342,0,0,0,0,0,0,0,0,0.0061,0.0071,0.0171,0.0175,0.0178,0.0235,0.02,0.0271,0.0259,0.0227,0.0259,0.0259,0.0297,0.0303,0.0315,0.0356,0.0359,0.0341,0.0343,0.0344,0.0345,0,0,0,0,0,0,0,0.0056,0.0067,0.0179,0.0172,0.0177,0.0175,0.0185,0.0214,0.0261,0.023,0.0233,0.0244,0.0299,0.0313,0.0317,0.036,0.0341,0.0344,0.0346,0.0347,0.0449,0.045,0,0,0,0,0,0,0.0052,0.0063,0.0176,0.0181,0.012,0.0179,0.019,0.0216,0.0261,0.0268,0.0244,0.0246,0.0308,0.0314,0.032,0.035,0.0344,0.0347,0.0349,0.0448,0.0449,0.045,0,0,0,0,0,0,0.0049,0.0062,0.0173,0.0124,0.0138,0.0182,0.0211,0.0217,0.0231,0.0272,0.0279,0.0252,0.0308,0.0316,0.0348,0.0353,0.0348,0.0351,0.0446,0.0448,0.0449,0.0409,0,0,0,0,0,0,0.0044,0.0061,0.0072,0.0125,0.0141,0.02,0.0211,0.0219,0.024,0.0242,0.028,0.0287,0.0308,0.0343,0.0351,0.0357,0.0353,0.0445,0.0447,0.0449,0.0409,0.0409,0.0408,0,0,0,0,0,0.0039,0.0057,0.0073,0.0086,0.0158,0.02,0.0208,0.0237,0.024,0.0248,0.0275,0.0286,0.036,0.0346,0.0355,0.0362,0.0444,0.0447,0.0449,0.0409,0.0409,0.0408,0,0,0,0,0,0,-0.0016,0.0063,0.0081,0.0119,0.0156,0.0206,0.0216,0.0235,0.0263,0.0263,0.0295,0.0303,0.0332,0.0359,0.0342,0.04,0.0406,0.041,0.0373,0.0373,0.0373,0.0352,0.0356,0,0,0,0,0,-0.0019,0.0022,0.0082,0.0108,0.0128,0.017,0.0188,0.021,0.0245,0.0257,0.0284,0.0318,0.0349,0.0368,0.0398,0.0429,0.0432,0.0443,0.0443,0.0442,0.0434,0.0447,0.0446,0.0457,0.0457,0.0457,0,0,-0.0037,0.0013,0.0033,0.01,0.0129,0.0148,0.018,0.021,0.0221,0.026,0.0278,0.0313,0.0357,0.0389,0.0405,0.041,0.044,0.0445,0.0444,0.0436,0.0449,0.0447,0.0446,0.0459,0.0458,0.0458,0,0,-0.0062,-0.0005,0.0012,0.0048,0.01,0.0131,0.0138,0.0189,0.0209,0.0238,0.0269,0.031,0.0353,0.0391,0.0414,0.0434,0.0434,0.0445,0.043,0.0443,0.0441,0.044,0.043,0.0428,0.045,0.045,0.045,0,-0.0098,-0.0057,0.0017,0.0038,0.0056,0.0119,0.012,0.0157,0.0208,0.0223,0.0237,0.0311,0.0354,0.0395,0.0408,0.0432,0.0425,0.0422,0.0439,0.0438,0.0437,0.0427,0.0426,0.0448,0.0448,0.0448,0.0448,0,-0.0108,-0.0083,-0.0072,-0.0021,0.0011,0.0026,0.0088,0.0115,0.0145,0.018,0.0224,0.0288,0.0329,0.036,0.0391,0.0417,0.0408,0.0429,0.043,0.0433,0.0423,0.0422,0.0446,0.0446,0.0447,0.0447,0,0,-0.018,-0.01,-0.01,-0.0096,-0.002,-0.0002,0.0032,0.0074,0.0083,0.0147,0.0153,0.0244,0.0279,0.0309,0.0361,0.039,0.039,0.0404,0.0406,0.0375,0.0389,0.0449,0.0453,0.0403,0.0403,0.0403,0.0378,0,-0.0228,-0.0228,-0.0154,-0.0159,-0.0163,-0.0077,-0.0054,-0.0,0.0048,0.0074,0.0158,0.0187,0.026,0.0276,0.0318,0.0366,0.0386,0.0392,0.0407,0.0407,0.0445,0.0455,0.0501,0.049,0.0377,0.0377,0.0377,0,-0.0266,-0.0266,-0.0287,-0.0243,-0.0232,-0.0217,-0.0173,-0.0137,-0.0061,-0.0024,0.0037,0.0095,0.0161,0.0212,0.0293,0.0286,0.0332,0.0374,0.0374,0.0443,0.0466,0.0475,0.0492,0.0633,0.0375,0.0375,0.0376,0,-0.038,-0.0351,-0.0381,-0.0365,-0.0307,-0.0296,-0.0261,-0.0184,-0.0162,-0.0094,-0.0087,0.0009,0.0035,0.0116,0.0233,0.0246,0.0303,0.0331,0.0426,0.0429,0.0481,0.0489,0.0624,0.0375,0.0375,0.0375,0.0375,0,-0.0456,-0.048,-0.0442,-0.046,-0.049,-0.0401,-0.0404,-0.0349,-0.0287,-0.0277,-0.0156,-0.0138,0.001,0.0077,0.0183,0.0303,0.0265,0.0419,0.0434,0.0469,0.0477,0.0613,0.0658,0.0374,0.0375,0.0375,0.0375,0,-0.0574,-0.0544,-0.0585,-0.0557,-0.0545,-0.0572,-0.0507,-0.0501,-0.0429,-0.042,-0.0407,-0.0277,-0.0162,-0.001,0.012,0.0231,0.0428,0.0395,0.0422,0.0443,0.0684,0.0724,0.0821,0.0896,0.0487,0.0489,0.049,0,-0.0627,-0.067,-0.0683,-0.0703,-0.0692,-0.0697,-0.0685,-0.0598,-0.0583,-0.05,-0.0512,-0.0392,-0.0277,-0.005,0.0176,0.0372,0.0476,0.0511,0.0573,0.0709,0.0764,0.0777,0.0835,0.0608,0.061,0.0612,0.0613,0,-0.0751,-0.0764,-0.0796,-0.0842,-0.0851,-0.0854,-0.0833,-0.0839,-0.0734,-0.0703,-0.0624,-0.0524,-0.0259,0.0027,0.0302,0.0423,0.0623,0.0553,0.0691,0.0872,0.0897,0.0973,0.0592,0.0629,0.0627,0.0626,0.0625,0.0624,-0.084,-0.0901,-0.093,-0.097,-0.0984,-0.0986,-0.0974,-0.093,-0.0895,-0.0777,-0.0696,-0.0457,-0.007,0.0361,0.0491,0.0817,0.0765,0.0924,0.0954,0.095,0.106,0.0713,0.0781,0.078,0.078,0.0779,0.0779,0,-0.0945,-0.0987,-0.1035,-0.1069,-0.1093,-0.1067,-0.1039,-0.0991,-0.0932,-0.0757,-0.0616,-0.0106,0.027,0.0627,0.1049,0.1216,0.1239,0.1286,0.1324,0.1361,0.1055,0.1104,0.1252,0.1252,0.1252,0.1252,0.1252,0.1252,-0.0996,-0.1074,-0.1092,-0.1145,-0.1156,-0.1135,-0.1109,-0.103,-0.0872,-0.0536,-0.019,0.0101,0.0581,0.1164,0.154,0.1567,0.1704,0.1671,0.1738,0.1549,0.1518,0.1488,0.1549,0.1788,0.1788,0.2047,0.2049,0.2051]}],[{"header":{"parameterUnit":"m.s-1","parameterCategory":2,"la1":30.2991,"la2":30.254,"lo1":-89.0895,"lo2":-89.0444,"dy":0.0017,"dx":0.0017,"nx":28,"ny":28,"refTime":"2024-03-19T21:00:00:Z","depth":"2","parameterNumber":2,"parameterNumberName":"U-component_of_CURRENTS"},"data":[0,0,0,0,0,0,0,0,0,0,0,0,0,0,0,0,0,0,0,0,0,0,0,0,0,0,0,0,0,0,0,0,0,0,0,0,0,0,0,0,0,0,0,0,0,0,0,0,0,0,0,0,0,0,0,0,0,0,-0.1698,-0.17,0,-0.2017,-0.2021,-0.2025,-0.2243,-0.2243,-0.2244,-0.2244,-0.2281,-0.2281,-0.2281,0,0,0,0,0,0,0,0,0,0,0,0,0,-0.1721,-0.1717,-0.1697,-0.1701,-0.1704,-0.2016,-0.2021,-0.2027,-0.2242,-0.2243,-0.2244,-0.2245,-0.2281,-0.2281,-0.2282,0,0,0,0,0,0,0,0,0,0,0,0,0,-0.185,-0.1716,-0.1697,-0.1842,-0.1857,-0.2015,-0.2021,-0.2028,-0.2242,-0.2243,-0.2244,-0.2245,-0.2281,-0.2281,-0.2282,-0.2265,0,0,-0.2283,-0.2283,0,0,0,0,0,0,0,0,-0.1842,-0.185,-0.1817,-0.1832,-0.1849,-0.2082,-0.2043,-0.209,-0.2242,-0.2107,-0.2244,-0.2246,-0.2181,-0.219,-0.2266,-0.2267,-0.2268,-0.2283,-0.2284,-0.2284,-0.2284,0,0,0,0,0,0,0,-0.1832,-0.184,-0.1834,-0.182,-0.184,-0.2043,-0.2059,-0.2057,-0.2136,-0.2118,-0.2132,-0.2152,-0.2189,-0.2265,-0.2267,-0.2269,-0.2283,-0.2284,-0.2284,-0.2284,-0.2394,-0.2396,0,0,0,0,0,0,-0.1747,-0.1828,-0.1824,-0.1843,-0.1837,-0.2039,-0.2058,-0.2015,-0.2143,-0.2164,-0.2151,-0.2161,-0.2264,-0.2266,-0.2268,-0.233,-0.2284,-0.2284,-0.2285,-0.2391,-0.2394,-0.2397,0,0,0,0,0,0,-0.1745,-0.1741,-0.1811,-0.1841,-0.1862,-0.2033,-0.1986,-0.202,-0.2152,-0.2169,-0.2186,-0.2251,-0.2265,-0.2268,-0.2295,-0.2329,-0.2285,-0.2285,-0.2388,-0.2392,-0.2396,-0.2403,0,0,0,0,0,0,-0.1744,-0.1737,-0.172,-0.1831,-0.1856,-0.1948,-0.1985,-0.2025,-0.2154,-0.2172,-0.2258,-0.2262,-0.2266,-0.2294,-0.2295,-0.2329,-0.2285,-0.2385,-0.239,-0.2395,-0.24,-0.2407,-0.2413,0,0,0,0,0,-0.1742,-0.1763,-0.1715,-0.1718,-0.1808,-0.195,-0.1987,-0.2121,-0.2157,-0.2241,-0.2266,-0.2262,-0.2327,-0.2295,-0.2296,-0.2331,-0.2383,-0.2389,-0.2394,-0.2397,-0.2405,-0.2413,0,0,0,0,0,0,-0.1777,-0.1787,-0.1739,-0.1754,-0.1835,-0.1984,-0.211,-0.2147,-0.2249,-0.227,-0.2271,-0.2276,-0.232,-0.2329,-0.2294,-0.2386,-0.2364,-0.237,-0.2366,-0.2374,-0.238,-0.2366,-0.2286,0,0,0,0,0,-0.1748,-0.1752,-0.1791,-0.1799,-0.1865,-0.1974,-0.2061,-0.2123,-0.2207,-0.2264,-0.2285,-0.2319,-0.2342,-0.2358,-0.2383,-0.2413,-0.2395,-0.2449,-0.2456,-0.2461,-0.2455,-0.2433,-0.2435,-0.2416,-0.2416,-0.2416,0,0,-0.1778,-0.1762,-0.1778,-0.1806,-0.191,-0.1988,-0.2041,-0.2191,-0.2223,-0.2234,-0.2314,-0.2336,-0.2356,-0.2401,-0.2423,-0.2412,-0.2466,-0.2468,-0.2472,-0.2463,-0.2439,-0.244,-0.2441,-0.242,-0.242,-0.2419,0,0,-0.1841,-0.182,-0.1862,-0.1911,-0.2006,-0.2071,-0.2107,-0.2237,-0.2296,-0.2329,-0.2354,-0.2387,-0.2426,-0.2448,-0.2458,-0.2515,-0.2499,-0.2553,-0.2569,-0.2548,-0.2548,-0.2547,-0.2547,-0.2546,-0.2558,-0.2558,-0.2558,0,-0.19,-0.1861,-0.1914,-0.195,-0.2022,-0.2096,-0.2186,-0.2236,-0.2326,-0.2345,-0.2354,-0.2417,-0.244,-0.2471,-0.2513,-0.2524,-0.2521,-0.2526,-0.255,-0.2549,-0.2548,-0.2548,-0.2547,-0.2559,-0.2559,-0.2559,-0.2559,0,-0.1957,-0.1943,-0.2014,-0.2032,-0.2126,-0.2235,-0.2282,-0.2328,-0.2371,-0.2386,-0.2431,-0.2453,-0.2485,-0.2517,-0.2531,-0.2564,-0.2567,-0.2551,-0.2513,-0.2549,-0.2549,-0.2547,-0.256,-0.256,-0.256,-0.2559,0,0,-0.2037,-0.2063,-0.2063,-0.2063,-0.2182,-0.225,-0.2315,-0.2389,-0.2421,-0.2432,-0.2429,-0.2503,-0.2515,-0.2532,-0.2559,-0.2559,-0.2568,-0.2569,-0.2567,-0.2539,-0.2541,-0.238,-0.2363,-0.2552,-0.2551,-0.2551,-0.2548,0,-0.2084,-0.2167,-0.2144,-0.2205,-0.2309,-0.2333,-0.2398,-0.2439,-0.2483,-0.2468,-0.2445,-0.2475,-0.2518,-0.2547,-0.2544,-0.2542,-0.2563,-0.2571,-0.2536,-0.2535,-0.236,-0.2354,-0.2186,-0.2153,-0.2546,-0.2546,-0.2546,0,-0.2092,-0.2173,-0.2294,-0.2313,-0.2361,-0.2383,-0.2501,-0.2535,-0.2531,-0.2553,-0.2539,-0.251,-0.249,-0.2511,-0.2515,-0.252,-0.2554,-0.2553,-0.2552,-0.239,-0.2368,-0.2181,-0.2136,-0.2543,-0.2543,-0.2543,-0.2544,0,-0.2136,-0.2197,-0.2303,-0.2325,-0.2425,-0.2443,-0.2497,-0.259,-0.2569,-0.2589,-0.2551,-0.2544,-0.2485,-0.2501,-0.2486,-0.2517,-0.2447,-0.248,-0.2377,-0.2368,-0.2208,-0.2183,-0.2507,-0.2507,-0.2507,-0.2507,-0.2507,0,-0.2137,-0.2164,-0.2318,-0.2351,-0.2422,-0.2519,-0.2541,-0.2591,-0.2599,-0.2548,-0.2589,-0.2521,-0.2481,-0.2403,-0.2446,-0.236,-0.2419,-0.2363,-0.2338,-0.221,-0.2186,-0.251,-0.2511,-0.2507,-0.2507,-0.2507,-0.2507,0,-0.2072,-0.2168,-0.2225,-0.2383,-0.2413,-0.2455,-0.2437,-0.2439,-0.2553,-0.2456,-0.2431,-0.2419,-0.238,-0.2329,-0.232,-0.2278,-0.225,-0.2236,-0.2084,-0.2038,-0.2214,-0.2216,-0.2116,-0.211,-0.2105,-0.2101,-0.2097,0,-0.2045,-0.2116,-0.2227,-0.2207,-0.2231,-0.229,-0.2314,-0.2391,-0.2372,-0.2396,-0.2309,-0.2259,-0.2176,-0.207,-0.2012,-0.1981,-0.2127,-0.1822,-0.1842,-0.2179,-0.2166,-0.2176,-0.2185,-0.1671,-0.1664,-0.1658,-0.1654,0,-0.1994,-0.202,-0.206,-0.2098,-0.2069,-0.2044,-0.2085,-0.2032,-0.2124,-0.2095,-0.2068,-0.201,-0.1922,-0.1749,-0.168,-0.1672,-0.1792,-0.1703,-0.2069,-0.1769,-0.1749,-0.174,-0.1765,-0.1604,-0.1609,-0.1612,-0.1615,-0.1617,-0.1901,-0.1895,-0.1936,-0.1876,-0.1882,-0.1845,-0.1769,-0.1801,-0.1746,-0.1712,-0.1759,-0.1666,-0.1637,-0.1415,-0.1353,-0.1315,-0.1476,-0.1439,-0.1461,-0.1488,-0.141,-0.1379,-0.1153,-0.1155,-0.1157,-0.1158,-0.116,0,-0.1729,-0.1721,-0.1709,-0.1638,-0.159,-0.1652,-0.163,-0.1558,-0.1483,-0.1462,-0.1414,-0.1217,-0.1088,-0.1105,-0.0959,-0.0931,-0.0989,-0.0906,-0.0989,-0.1036,-0.1079,-0.0986,-0.0613,-0.0611,-0.061,-0.0609,0,0,-0.1642,-0.1515,-0.1499,-0.1356,-0.1355,-0.1252,-0.1225,-0.119,-0.1157,-0.1049,-0.0979,-0.1002,-0.1025,-0.08,-0.0759,-0.0657,-0.085,-0.0625,-0.1058,-0.12,-0.1242,-0.1369,-0.1274,0,0,0,0,0]},{"header":{"parameterUnit":"m.s-1","parameterCategory":2,"la1":30.2991,"la2":30.254,"lo1":-89.0895,"lo2":-89.0444,"dy":0.0017,"dx":0.0017,"nx":28,"ny":28,"refTime":"2024-03-19T21:00:00:Z","depth":"2","parameterNumber":3,"parameterNumberName":"V-component_of_CURRENTS"},"data":[0,0,0,0,0,0,0,0,0,0,0,0,0,0,0,0,0,0,0,0,0,0,0,0,0,0,0,0,0,0,0,0,0,0,0,0,0,0,0,0,0,0,0,0,0,0,0,0,0,0,0,0,0,0,0,0,0,0,-0.0196,-0.0195,0,-0.0062,-0.006,-0.0058,0.0022,0.0022,0.0022,0.0023,0.0088,0.0089,0.0091,0,0,0,0,0,0,0,0,0,0,0,0,0,-0.0328,-0.0326,-0.0196,-0.0195,-0.0193,-0.0062,-0.006,-0.0058,0.0022,0.0022,0.0023,0.0023,0.0087,0.0089,0.0091,0,0,0,0,0,0,0,0,0,0,0,0,0,-0.0238,-0.0326,-0.0196,-0.0139,-0.0133,-0.0062,-0.006,-0.0057,0.0022,0.0022,0.0023,0.0023,0.0087,0.0089,0.0091,0.01,0,0,0.0099,0.01,0,0,0,0,0,0,0,0,-0.0244,-0.0233,-0.0149,-0.0143,-0.0136,-0.0038,-0.0083,-0.0009,0.0022,-0.0035,0.0023,0.0023,0.0038,0.0044,0.0073,0.0103,0.0106,0.0099,0.01,0.0101,0.0102,0,0,0,0,0,0,0,-0.025,-0.0238,-0.0141,-0.0147,-0.0139,-0.0101,-0.0088,-0.0067,-0.0001,-0.003,-0.0024,-0.0012,0.0041,0.007,0.0075,0.0107,0.0099,0.0101,0.0102,0.0103,0.0197,0.0198,0,0,0,0,0,0,-0.0274,-0.0244,-0.0145,-0.0137,-0.0192,-0.0099,-0.0085,-0.0068,0.0,0.0011,-0.0013,-0.0009,0.0066,0.0072,0.0077,0.0104,0.0101,0.0103,0.0105,0.0196,0.0198,0.0199,0,0,0,0,0,0,-0.0277,-0.0266,-0.0151,-0.019,-0.0173,-0.0098,-0.0079,-0.0066,-0.0032,0.0013,0.0023,0.0006,0.0067,0.0074,0.0098,0.0106,0.0104,0.0107,0.0195,0.0197,0.0198,0.0148,0,0,0,0,0,0,-0.0281,-0.0268,-0.0275,-0.0191,-0.0171,-0.0117,-0.0079,-0.0063,-0.0027,-0.0021,0.0032,0.0039,0.0068,0.0094,0.01,0.0109,0.0108,0.0194,0.0196,0.0198,0.0148,0.0148,0.0147,0,0,0,0,0,-0.0286,-0.0288,-0.0276,-0.0265,-0.018,-0.0118,-0.0104,-0.0048,-0.0027,-0.0017,0.0022,0.0038,0.0112,0.0096,0.0103,0.0113,0.0193,0.0195,0.0198,0.0148,0.0148,0.0147,0,0,0,0,0,0,-0.0349,-0.0278,-0.0263,-0.0244,-0.0194,-0.0105,-0.0083,-0.0052,-0.0009,-0.0,0.0039,0.0049,0.0073,0.0104,0.0085,0.0151,0.016,0.0164,0.012,0.012,0.012,0.0126,0.011,0,0,0,0,0,-0.037,-0.0353,-0.0281,-0.0271,-0.0236,-0.0163,-0.0135,-0.0096,-0.0043,-0.0021,0.0011,0.0055,0.0091,0.0111,0.0142,0.017,0.0191,0.0188,0.0188,0.0187,0.02,0.0268,0.0275,0.0207,0.0207,0.0207,0,0,-0.039,-0.0354,-0.0343,-0.0284,-0.0228,-0.0194,-0.0143,-0.0092,-0.007,-0.0025,0.001,0.0043,0.0096,0.013,0.0146,0.0155,0.0203,0.019,0.0188,0.0203,0.0272,0.0278,0.0284,0.0209,0.0208,0.0208,0,0,-0.0416,-0.0383,-0.0371,-0.0337,-0.0271,-0.0218,-0.0208,-0.0125,-0.0086,-0.0061,-0.0011,0.0033,0.0069,0.0128,0.0158,0.0176,0.019,0.0184,0.0192,0.0257,0.0263,0.0269,0.0233,0.0236,0.0193,0.0192,0.0192,0,-0.0444,-0.0435,-0.0361,-0.0345,-0.0317,-0.0234,-0.0212,-0.0162,-0.0093,-0.0047,-0.0063,0.005,0.0074,0.0163,0.0162,0.0174,0.0181,0.0181,0.0255,0.0262,0.0268,0.0231,0.0235,0.019,0.0191,0.0191,0.0191,0,-0.046,-0.0462,-0.0445,-0.04,-0.035,-0.0326,-0.0237,-0.0188,-0.0146,-0.0092,-0.0011,0.0035,0.0111,0.0124,0.0136,0.0216,0.0189,0.0234,0.0248,0.0272,0.023,0.0235,0.0187,0.0188,0.0189,0.0189,0,0,-0.0501,-0.0467,-0.0468,-0.0462,-0.0384,-0.0338,-0.0273,-0.0178,-0.0134,-0.0067,-0.0014,0.0068,0.0114,0.0153,0.0198,0.0252,0.0259,0.0253,0.0258,0.0201,0.0329,0.0368,0.0377,0.032,0.0323,0.0325,0.0253,0,-0.0542,-0.0553,-0.0504,-0.0497,-0.0481,-0.0378,-0.0325,-0.0223,-0.0157,-0.0096,0.0019,0.0059,0.0123,0.0131,0.0213,0.0238,0.0283,0.027,0.0331,0.0331,0.0354,0.039,0.0377,0.0322,0.0259,0.0259,0.026,0,-0.0577,-0.0585,-0.0593,-0.0542,-0.0515,-0.0489,-0.0364,-0.0314,-0.0178,-0.0128,-0.0015,0.0042,0.0134,0.0161,0.0282,0.0267,0.0301,0.0328,0.0327,0.0398,0.0386,0.0307,0.0334,0.0269,0.0268,0.0268,0.0267,0,-0.0649,-0.0637,-0.0651,-0.0644,-0.0568,-0.0522,-0.0461,-0.032,-0.0277,-0.0163,-0.0153,0.0011,0.0032,0.0152,0.0231,0.0241,0.0331,0.0352,0.0428,0.0425,0.0448,0.0446,0.0458,0.0458,0.0458,0.0459,0.0459,0,-0.0725,-0.0734,-0.0695,-0.0715,-0.0697,-0.0594,-0.055,-0.0461,-0.0368,-0.0324,-0.0189,-0.0144,0.0034,0.0117,0.0207,0.033,0.0327,0.0435,0.0442,0.0422,0.042,0.0423,0.042,0.0456,0.0456,0.0457,0.0457,0,-0.0804,-0.0794,-0.0812,-0.0763,-0.0744,-0.0726,-0.0643,-0.0605,-0.0516,-0.0473,-0.0454,-0.029,-0.016,0.0005,0.0156,0.0272,0.0386,0.0437,0.0354,0.0359,0.0418,0.0413,0.0484,0.0486,0.0487,0.0488,0.0489,0,-0.0845,-0.0877,-0.087,-0.0877,-0.0863,-0.0828,-0.0791,-0.0691,-0.0658,-0.0548,-0.0539,-0.0408,-0.0262,-0.0031,0.0193,0.0371,0.0398,0.0449,0.0517,0.0437,0.0436,0.0429,0.0423,0.0466,0.0467,0.0468,0.0468,0,-0.0933,-0.0937,-0.0949,-0.097,-0.0961,-0.0947,-0.0901,-0.0901,-0.0776,-0.0725,-0.0612,-0.05,-0.0242,0.0013,0.0262,0.0369,0.0428,0.0468,0.0435,0.0491,0.0425,0.0422,0.0416,0.0473,0.0472,0.0472,0.0472,0.0471,-0.098,-0.1018,-0.1034,-0.1039,-0.1046,-0.104,-0.1012,-0.0953,-0.0895,-0.076,-0.0657,-0.0424,-0.0214,0.0201,0.0344,0.0491,0.0496,0.054,0.0536,0.0532,0.0573,0.0518,0.0581,0.0582,0.0582,0.0582,0.0582,0,-0.1025,-0.1062,-0.1086,-0.1095,-0.1107,-0.1086,-0.1053,-0.0995,-0.0912,-0.0737,-0.0576,-0.0286,-0.0005,0.021,0.0458,0.0584,0.0564,0.0592,0.0544,0.0539,0.0535,0.0575,0.0584,0.0584,0.0584,0.0585,0,0,-0.1053,-0.1098,-0.1109,-0.1134,-0.1136,-0.1114,-0.1089,-0.1,-0.0859,-0.0659,-0.0442,-0.0191,0.0064,0.0239,0.0378,0.0496,0.0481,0.0498,0.0485,0.0406,0.04,0.0495,0.0551,0,0,0,0,0]}],[{"header":{"parameterUnit":"m.s-1","parameterCategory":2,"la1":30.2991,"la2":30.254,"lo1":-89.0895,"lo2":-89.0444,"dy":0.0017,"dx":0.0017,"nx":28,"ny":28,"refTime":"2024-03-19T21:00:00:Z","depth":"4","parameterNumber":2,"parameterNumberName":"U-component_of_CURRENTS"},"data":[0,0,0,0,0,0,0,0,0,0,0,0,0,0,0,0,0,0,0,0,0,0,0,0,0,0,0,0,0,0,0,0,0,0,0,0,0,0,0,0,0,0,0,0,0,0,0,0,0,0,0,0,0,0,0,0,0,0,-0.0575,-0.0576,0,-0.0636,-0.0636,-0.0637,-0.0659,-0.0659,-0.0659,-0.0659,-0.0706,-0.0707,-0.0708,0,0,0,0,0,0,0,0,0,0,0,0,0,-0.0496,-0.0497,-0.0575,-0.0576,-0.0577,-0.0636,-0.0636,-0.0637,-0.0659,-0.0659,-0.0659,-0.0659,-0.0705,-0.0707,-0.0708,0,0,0,0,0,0,0,0,0,0,0,0,0,-0.0539,-0.0497,-0.0575,-0.0596,-0.0599,-0.0636,-0.0637,-0.0637,-0.0659,-0.0659,-0.0659,-0.0659,-0.0705,-0.0707,-0.0709,-0.0722,0,0,-0.0715,-0.0715,0,0,0,0,0,0,0,0,-0.0536,-0.0542,-0.0592,-0.0595,-0.0598,-0.0641,-0.0626,-0.0666,-0.0659,-0.0634,-0.0659,-0.0659,-0.0684,-0.0688,-0.0697,-0.0724,-0.0726,-0.0715,-0.0716,-0.0717,-0.0717,0,0,0,0,0,0,0,-0.0533,-0.0539,-0.0597,-0.0593,-0.0597,-0.0609,-0.0615,-0.0634,-0.0657,-0.0636,-0.0638,-0.0648,-0.0685,-0.0695,-0.0698,-0.0727,-0.0715,-0.0716,-0.0718,-0.0718,-0.083,-0.0832,0,0,0,0,0,0,-0.0529,-0.0536,-0.0595,-0.0599,-0.0569,-0.0611,-0.0617,-0.0626,-0.0657,-0.0663,-0.0648,-0.0649,-0.0692,-0.0696,-0.07,-0.0759,-0.0717,-0.0719,-0.072,-0.0828,-0.083,-0.0832,0,0,0,0,0,0,-0.0527,-0.0534,-0.0593,-0.0571,-0.0579,-0.0612,-0.0622,-0.0627,-0.0646,-0.0667,-0.0672,-0.0663,-0.0692,-0.0697,-0.0734,-0.0759,-0.0719,-0.0721,-0.0826,-0.0829,-0.0831,-0.085,0,0,0,0,0,0,-0.0524,-0.0532,-0.0535,-0.057,-0.058,-0.0624,-0.0623,-0.0628,-0.0652,-0.0654,-0.0681,-0.0685,-0.0692,-0.0732,-0.0736,-0.0761,-0.0723,-0.0824,-0.0827,-0.083,-0.0847,-0.0853,-0.0858,0,0,0,0,0,-0.0521,-0.052,-0.0535,-0.0542,-0.0584,-0.0625,-0.0631,-0.0653,-0.0653,-0.0667,-0.069,-0.0684,-0.0757,-0.0734,-0.074,-0.0765,-0.0822,-0.0826,-0.083,-0.0845,-0.0852,-0.0858,0,0,0,0,0,0,-0.0479,-0.0524,-0.054,-0.0551,-0.0592,-0.0629,-0.0636,-0.0658,-0.0686,-0.0685,-0.0702,-0.0708,-0.0751,-0.076,-0.0735,-0.0811,-0.0791,-0.0796,-0.08,-0.0807,-0.0812,-0.0809,-0.0724,0,0,0,0,0,-0.0475,-0.0489,-0.0539,-0.0548,-0.0565,-0.0604,-0.0621,-0.0644,-0.0675,-0.0687,-0.0717,-0.0745,-0.0771,-0.0789,-0.0815,-0.0853,-0.0866,-0.0877,-0.0882,-0.0887,-0.089,-0.0926,-0.0934,-0.0846,-0.0845,-0.0845,0,0,-0.0463,-0.0486,-0.0496,-0.0541,-0.0566,-0.0602,-0.0613,-0.0644,-0.0681,-0.0687,-0.0742,-0.0763,-0.0786,-0.0831,-0.0851,-0.0841,-0.0924,-0.0892,-0.0895,-0.0896,-0.0931,-0.094,-0.0947,-0.0848,-0.0848,-0.0847,0,0,-0.0445,-0.0466,-0.0477,-0.0516,-0.0564,-0.0594,-0.0608,-0.0665,-0.0694,-0.0753,-0.0764,-0.08,-0.0856,-0.0875,-0.0888,-0.0941,-0.0949,-0.0958,-0.0984,-0.1019,-0.1026,-0.1032,-0.1073,-0.1083,-0.0963,-0.0963,-0.0963,0,-0.0424,-0.0451,-0.0487,-0.0514,-0.0547,-0.0593,-0.0625,-0.0665,-0.0734,-0.0766,-0.0775,-0.0863,-0.0874,-0.0922,-0.0942,-0.095,-0.0978,-0.0951,-0.1024,-0.103,-0.1036,-0.1077,-0.1087,-0.0964,-0.0964,-0.0964,-0.0964,0,-0.0427,-0.0454,-0.0462,-0.0517,-0.056,-0.059,-0.066,-0.0707,-0.0752,-0.08,-0.0873,-0.0904,-0.0958,-0.0969,-0.097,-0.1026,-0.1035,-0.1021,-0.1,-0.1046,-0.1086,-0.1097,-0.0966,-0.0966,-0.0966,-0.0965,0,0,-0.0362,-0.0446,-0.045,-0.0483,-0.0565,-0.0598,-0.0666,-0.0741,-0.0798,-0.0862,-0.0935,-0.0976,-0.1005,-0.1024,-0.1038,-0.1066,-0.1128,-0.1068,-0.1069,-0.1096,-0.1223,-0.1128,-0.113,-0.1131,-0.1133,-0.1134,-0.1238,0,-0.0351,-0.039,-0.0452,-0.0508,-0.0535,-0.0618,-0.069,-0.0768,-0.0845,-0.0932,-0.0967,-0.1042,-0.1024,-0.1064,-0.1087,-0.1122,-0.1156,-0.1103,-0.1185,-0.1188,-0.1086,-0.1138,-0.1139,-0.1245,-0.1248,-0.1249,-0.1251,0,-0.0335,-0.0364,-0.041,-0.0513,-0.0538,-0.0587,-0.0708,-0.0791,-0.0915,-0.0982,-0.1053,-0.11,-0.1157,-0.1138,-0.1213,-0.1186,-0.1209,-0.1227,-0.1231,-0.1139,-0.1111,-0.1189,-0.1269,-0.1268,-0.1267,-0.1265,-0.1264,0,-0.0259,-0.0339,-0.0372,-0.0406,-0.0529,-0.0574,-0.0652,-0.079,-0.0897,-0.1018,-0.1103,-0.1167,-0.123,-0.1257,-0.1301,-0.1269,-0.1388,-0.1343,-0.1281,-0.1276,-0.132,-0.1312,-0.1398,-0.1398,-0.1397,-0.1397,-0.1397,0,-0.0223,-0.025,-0.0335,-0.0354,-0.0436,-0.0533,-0.066,-0.0754,-0.0917,-0.1056,-0.1124,-0.1229,-0.1266,-0.1341,-0.1345,-0.1356,-0.1427,-0.1297,-0.1295,-0.1329,-0.1321,-0.1329,-0.1319,-0.1401,-0.14,-0.1399,-0.1399,0,-0.0145,-0.0206,-0.0263,-0.0367,-0.0406,-0.0476,-0.0678,-0.0791,-0.0927,-0.1107,-0.1154,-0.1298,-0.1371,-0.141,-0.1473,-0.1415,-0.1431,-0.142,-0.1486,-0.1485,-0.1283,-0.1274,-0.1338,-0.1336,-0.1334,-0.1332,-0.133,0,-0.0118,-0.0119,-0.0244,-0.0329,-0.0383,-0.0501,-0.0617,-0.0783,-0.0915,-0.1154,-0.1237,-0.1355,-0.1429,-0.145,-0.147,-0.1464,-0.1435,-0.1437,-0.1314,-0.1284,-0.1277,-0.1271,-0.1265,-0.1327,-0.1326,-0.1326,-0.1325,0,-0.0047,-0.009,-0.0145,-0.0293,-0.0419,-0.0563,-0.0711,-0.0805,-0.1023,-0.1145,-0.129,-0.1327,-0.1407,-0.1407,-0.1419,-0.1411,-0.1421,-0.1413,-0.1416,-0.1299,-0.1271,-0.1265,-0.1262,-0.1318,-0.1319,-0.132,-0.132,0,-0.0008,-0.0034,-0.0115,-0.0271,-0.0429,-0.0571,-0.0673,-0.0824,-0.0957,-0.1196,-0.1243,-0.1347,-0.1431,-0.1387,-0.1411,-0.1375,-0.1315,-0.1245,-0.1255,-0.1263,-0.1179,-0.1128,-0.1141,0,0,0,0,0,0.0051,0.0024,-0.0099,-0.027,-0.0432,-0.0516,-0.0722,-0.0832,-0.1021,-0.1103,-0.1168,-0.1237,-0.1253,-0.1299,-0.1234,-0.1332,-0.1301,-0.1248,-0.1222,-0.1277,-0.1285,-0.1185,0,0,0,0,0,0,0.0075,0.0023,-0.005,-0.0224,-0.0342,-0.0502,-0.0634,-0.078,-0.0832,-0.1009,-0.1024,-0.1123,-0.1148,-0.1248,-0.1188,-0.1196,-0.1148,-0.1298,-0.1294,-0.1272,-0.128,-0.1287,-0.1187,0,0,0,0,0]},{"header":{"parameterUnit":"m.s-1","parameterCategory":2,"la1":30.2991,"la2":30.254,"lo1":-89.0895,"lo2":-89.0444,"dy":0.0017,"dx":0.0017,"nx":28,"ny":28,"refTime":"2024-03-19T21:00:00:Z","depth":"4","parameterNumber":3,"parameterNumberName":"V-component_of_CURRENTS"},"data":[0,0,0,0,0,0,0,0,0,0,0,0,0,0,0,0,0,0,0,0,0,0,0,0,0,0,0,0,0,0,0,0,0,0,0,0,0,0,0,0,0,0,0,0,0,0,0,0,0,0,0,0,0,0,0,0,0,0,-0.0409,-0.0409,0,-0.0419,-0.0419,-0.0419,-0.0383,-0.0382,-0.0381,-0.038,-0.0327,-0.0327,-0.0326,0,0,0,0,0,0,0,0,0,0,0,0,0,-0.0322,-0.0324,-0.0409,-0.0409,-0.041,-0.0419,-0.0419,-0.0419,-0.0383,-0.0382,-0.0381,-0.038,-0.0327,-0.0327,-0.0326,0,0,0,0,0,0,0,0,0,0,0,0,0,-0.0347,-0.0324,-0.0409,-0.0394,-0.0393,-0.0419,-0.0419,-0.0419,-0.0383,-0.0382,-0.038,-0.0379,-0.0328,-0.0327,-0.0326,-0.035,0,0,-0.0324,-0.0323,0,0,0,0,0,0,0,0,-0.0346,-0.035,-0.0396,-0.0395,-0.0394,-0.0399,-0.0369,-0.0393,-0.0384,-0.0386,-0.038,-0.0378,-0.0347,-0.0345,-0.0349,-0.0347,-0.0345,-0.0324,-0.0323,-0.0323,-0.0323,0,0,0,0,0,0,0,-0.0344,-0.035,-0.0412,-0.0396,-0.0395,-0.0374,-0.0376,-0.0373,-0.0372,-0.0385,-0.0383,-0.0387,-0.0346,-0.035,-0.0347,-0.0344,-0.0324,-0.0323,-0.0322,-0.0322,-0.036,-0.0362,0,0,0,0,0,0,-0.035,-0.0349,-0.0411,-0.0412,-0.0367,-0.0377,-0.0379,-0.0398,-0.0374,-0.0369,-0.0388,-0.0385,-0.0352,-0.0348,-0.0345,-0.0367,-0.0323,-0.0322,-0.0322,-0.0359,-0.0361,-0.0362,0,0,0,0,0,0,-0.0348,-0.0356,-0.0411,-0.038,-0.0386,-0.038,-0.0401,-0.0399,-0.0403,-0.0376,-0.037,-0.0394,-0.0351,-0.0346,-0.0351,-0.0365,-0.0322,-0.0321,-0.0357,-0.0359,-0.0361,-0.0414,0,0,0,0,0,0,-0.0346,-0.0356,-0.0372,-0.0381,-0.0388,-0.0435,-0.0403,-0.04,-0.0408,-0.0404,-0.038,-0.0373,-0.0349,-0.0352,-0.035,-0.0363,-0.032,-0.0355,-0.0358,-0.0361,-0.041,-0.0417,-0.0424,0,0,0,0,0,-0.0343,-0.0377,-0.0373,-0.0381,-0.0411,-0.0436,-0.0438,-0.0427,-0.0409,-0.0422,-0.0405,-0.0374,-0.0368,-0.0353,-0.035,-0.0363,-0.0354,-0.0357,-0.0361,-0.0407,-0.0416,-0.0423,0,0,0,0,0,0,-0.0349,-0.0377,-0.0373,-0.0413,-0.0426,-0.0431,-0.0445,-0.0436,-0.0434,-0.0428,-0.0394,-0.0388,-0.0399,-0.0381,-0.0365,-0.0385,-0.0356,-0.0359,-0.0392,-0.04,-0.0407,-0.0383,-0.032,0,0,0,0,0,-0.036,-0.0391,-0.0406,-0.0439,-0.0448,-0.0448,-0.0456,-0.0451,-0.045,-0.0448,-0.0429,-0.0415,-0.0413,-0.0406,-0.0403,-0.0414,-0.0346,-0.0421,-0.0428,-0.0434,-0.0414,-0.0325,-0.032,-0.0373,-0.0373,-0.0373,0,0,-0.0371,-0.039,-0.0408,-0.0441,-0.045,-0.0473,-0.0449,-0.0472,-0.0483,-0.0443,-0.0452,-0.0442,-0.0424,-0.0436,-0.0438,-0.0419,-0.0389,-0.0438,-0.0443,-0.0419,-0.0327,-0.0321,-0.0316,-0.0375,-0.0375,-0.0375,0,0,-0.0409,-0.0429,-0.0464,-0.0476,-0.0496,-0.05,-0.0509,-0.0518,-0.0514,-0.0529,-0.0503,-0.0493,-0.0497,-0.0475,-0.0468,-0.0511,-0.0432,-0.0524,-0.0529,-0.0444,-0.0437,-0.043,-0.0349,-0.0335,-0.0521,-0.0521,-0.0521,0,-0.0418,-0.0466,-0.0477,-0.0505,-0.052,-0.0515,-0.0546,-0.0548,-0.0553,-0.0543,-0.0539,-0.0515,-0.0509,-0.0493,-0.0516,-0.0522,-0.0459,-0.0498,-0.0448,-0.044,-0.0432,-0.035,-0.0333,-0.0524,-0.0523,-0.0523,-0.0523,0,-0.0471,-0.0508,-0.0532,-0.0566,-0.0583,-0.0613,-0.0616,-0.0624,-0.0618,-0.0601,-0.0586,-0.0568,-0.054,-0.0553,-0.0552,-0.0508,-0.0478,-0.0468,-0.0417,-0.0429,-0.0343,-0.0325,-0.0528,-0.0527,-0.0526,-0.0525,0,0,-0.0492,-0.0558,-0.0564,-0.0587,-0.0617,-0.0636,-0.0658,-0.0666,-0.0651,-0.0643,-0.0606,-0.0617,-0.0577,-0.0566,-0.055,-0.0488,-0.0403,-0.0462,-0.0456,-0.0364,-0.0205,-0.0229,-0.021,-0.0376,-0.0373,-0.0371,-0.017,0,-0.0529,-0.06,-0.0619,-0.0674,-0.0709,-0.0707,-0.0719,-0.0714,-0.0696,-0.0656,-0.0611,-0.0576,-0.0589,-0.0566,-0.0511,-0.0428,-0.0355,-0.0457,-0.0221,-0.0214,-0.0219,-0.019,-0.0362,-0.0156,-0.0151,-0.0148,-0.0146,0,-0.0564,-0.0613,-0.0686,-0.0723,-0.0734,-0.0759,-0.0759,-0.0766,-0.0707,-0.0681,-0.0624,-0.057,-0.0494,-0.0494,-0.0327,-0.0389,-0.0301,-0.0231,-0.0221,-0.0204,-0.0203,-0.014,-0.0111,-0.0114,-0.0117,-0.0119,-0.0121,0,-0.0569,-0.0645,-0.071,-0.0727,-0.0775,-0.0793,-0.0801,-0.0771,-0.075,-0.0677,-0.0628,-0.053,-0.0459,-0.034,-0.0228,-0.0257,-0.0021,-0.0036,0.0035,0.0035,0.0022,0.0013,0.0112,0.0112,0.0111,0.0111,0.011,0,-0.0587,-0.0629,-0.0721,-0.0752,-0.0795,-0.0813,-0.0817,-0.0804,-0.0747,-0.0698,-0.0632,-0.0554,-0.0413,-0.0276,-0.0182,-0.0018,0.0024,0.0059,0.0094,-0.0011,-0.0025,0.0035,0.0024,0.0118,0.0116,0.0115,0.0114,0,-0.0567,-0.0634,-0.0708,-0.0786,-0.0804,-0.083,-0.0829,-0.0812,-0.0769,-0.0696,-0.0663,-0.0529,-0.0363,-0.0221,-0.0005,0.0047,0.0201,0.025,0.014,0.0162,0.0194,0.0177,0.0372,0.0373,0.0374,0.0374,0.0375,0,-0.0559,-0.0608,-0.0726,-0.0766,-0.0805,-0.084,-0.0847,-0.0825,-0.0796,-0.0682,-0.0633,-0.0458,-0.0365,-0.006,0.0056,0.0269,0.0272,0.0357,0.0261,0.0211,0.0226,0.0207,0.019,0.0376,0.0377,0.0377,0.0377,0,-0.0533,-0.0594,-0.0659,-0.0756,-0.0801,-0.0831,-0.0837,-0.0813,-0.077,-0.0724,-0.0564,-0.0414,-0.0223,-0.0039,0.0125,0.026,0.0301,0.0366,0.0364,0.0275,0.0219,0.0228,0.021,0.038,0.038,0.0379,0.0379,0,-0.0506,-0.0542,-0.0642,-0.0723,-0.0789,-0.0812,-0.082,-0.0771,-0.0731,-0.0615,-0.0558,-0.0369,-0.0249,-0.004,0.0106,0.0239,0.0255,0.0275,0.0279,0.0277,0.0156,0.0065,0.0235,0,0,0,0,0,-0.046,-0.0497,-0.0582,-0.0679,-0.0758,-0.0791,-0.0805,-0.0804,-0.0765,-0.0646,-0.0598,-0.0423,-0.0181,-0.0073,0.0062,0.0088,0.025,0.0244,0.0268,0.0396,0.0393,0.026,0,0,0,0,0,0,-0.0422,-0.0487,-0.056,-0.064,-0.0699,-0.0757,-0.0777,-0.0757,-0.0685,-0.0624,-0.0487,-0.0403,-0.0168,-0.0247,0.0067,0.0105,0.0133,0.0362,0.0364,0.0398,0.0395,0.0393,0.0255,0,0,0,0,0]}]]